Time,TemperatureF,DewpointF,PressureIn,WindDirection,WindDirectionDegrees,WindSpeedMPH,WindSpeedGustMPH,Humidity,HourlyPrecipIn,Conditions,Clouds,dailyrainin,SoftwareType,DateUTC
2013-03-28 00:02:00,29.0,20.0,30.41,NNW,327,8.0,-999.0,70,-99.99,,,-99.99,,2013-03-28 04:02:00,
2013-03-28 00:12:00,29.0,20.0,30.41,NNW,327,8.0,-999.0,70,-99.99,,,-99.99,,2013-03-28 04:12:00,
2013-03-28 00:23:00,29.0,20.0,30.41,NW,311,10.0,-999.0,70,-99.99,,,-99.99,,2013-03-28 04:23:00,
2013-03-28 00:32:00,29.0,21.0,30.40,NNE,16,7.0,-999.0,71,-99.99,,,-99.99,,2013-03-28 04:32:00,
2013-03-28 00:42:00,29.0,21.0,30.40,NNE,16,7.0,-999.0,71,-99.99,,,-99.99,,2013-03-28 04:42:00,
2013-03-28 00:52:00,29.0,21.0,30.40,NNW,332,9.0,-999.0,71,-99.99,,,-99.99,,2013-03-28 04:52:00,
2013-03-28 01:02:00,29.0,20.0,30.40,NNE,19,9.0,-999.0,70,-99.99,,,-99.99,,2013-03-28 05:02:00,
2013-03-28 01:12:00,29.0,20.0,30.40,NNE,19,9.0,-999.0,70,-99.99,,,-99.99,,2013-03-28 05:12:00,
2013-03-28 01:22:00,30.0,21.0,30.40,NNW,342,10.0,-999.0,70,-99.99,,,-99.99,,2013-03-28 05:22:00,
2013-03-28 01:32:00,29.0,21.0,30.40,NW,319,7.0,-999.0,71,-99.99,,,-99.99,,2013-03-28 05:32:00,
2013-03-28 01:42:00,29.0,21.0,30.40,NW,319,7.0,-999.0,71,-99.99,,,-99.99,,2013-03-28 05:42:00,
2013-03-28 01:52:00,29.0,21.0,30.40,NW,319,7.0,-999.0,71,-99.99,,,-99.99,,2013-03-28 05:52:00,
2013-03-28 02:02:00,29.0,23.0,30.40,NW,306,8.0,-999.0,77,-99.99,,,-99.99,,2013-03-28 06:02:00,
2013-03-28 02:12:00,29.0,23.0,30.40,NW,306,8.0,-999.0,77,-99.99,,,-99.99,,2013-03-28 06:12:00,
2013-03-28 02:22:00,29.0,21.0,30.40,WNW,288,8.0,-999.0,72,-99.99,,,-99.99,,2013-03-28 06:22:00,
2013-03-28 02:33:00,29.0,21.0,30.40,North,9,7.0,-999.0,72,-99.99,,,-99.99,,2013-03-28 06:33:00,
2013-03-28 02:42:00,29.0,21.0,30.40,North,9,7.0,-999.0,72,-99.99,,,-99.99,,2013-03-28 06:42:00,
2013-03-28 02:52:00,29.0,21.0,30.39,NW,321,9.0,-999.0,72,-99.99,,,-99.99,,2013-03-28 06:52:00,
2013-03-28 03:02:00,29.0,21.0,30.39,NW,323,8.0,-999.0,73,-99.99,,,-99.99,,2013-03-28 07:02:00,
2013-03-28 03:12:00,29.0,21.0,30.39,NW,323,8.0,-999.0,73,-99.99,,,-99.99,,2013-03-28 07:12:00,
2013-03-28 03:22:00,28.0,20.0,30.39,NW,323,7.0,-999.0,73,-99.99,,,-99.99,,2013-03-28 07:22:00,
2013-03-28 03:32:00,28.0,20.0,30.38,NW,306,10.0,-999.0,73,-99.99,,,-99.99,,2013-03-28 07:32:00,
2013-03-28 03:42:00,28.0,20.0,30.38,NW,306,10.0,-999.0,73,-99.99,,,-99.99,,2013-03-28 07:42:00,
2013-03-28 03:52:00,28.0,21.0,30.38,NW,323,8.0,-999.0,75,-99.99,,,-99.99,,2013-03-28 07:52:00,
2013-03-28 04:02:00,28.0,21.0,30.38,NNW,328,9.0,-999.0,74,-99.99,,,-99.99,,2013-03-28 08:02:00,
2013-03-28 04:12:00,28.0,21.0,30.38,NNW,328,9.0,-999.0,74,-99.99,,,-99.99,,2013-03-28 08:12:00,
2013-03-28 04:21:00,28.0,21.0,30.39,NW,312,8.0,-999.0,74,-99.99,,,-99.99,,2013-03-28 08:21:00,
2013-03-28 04:32:00,28.0,21.0,30.39,NW,321,7.0,-999.0,75,-99.99,,,-99.99,,2013-03-28 08:32:00,
2013-03-28 04:42:00,28.0,21.0,30.39,NW,321,7.0,-999.0,75,-99.99,,,-99.99,,2013-03-28 08:42:00,
2013-03-28 04:52:00,28.0,21.0,30.39,NW,323,7.0,-999.0,75,-99.99,,,-99.99,,2013-03-28 08:52:00,
2013-03-28 05:02:00,28.0,21.0,30.39,NW,319,6.0,-999.0,76,-99.99,,,-99.99,,2013-03-28 09:02:00,
2013-03-28 05:12:00,28.0,21.0,30.39,NW,319,6.0,-999.0,76,-99.99,,,-99.99,,2013-03-28 09:12:00,
2013-03-28 05:22:00,28.0,21.0,30.39,NW,323,7.0,-999.0,75,-99.99,,,-99.99,,2013-03-28 09:22:00,
2013-03-28 05:32:00,28.0,21.0,30.39,NW,311,7.0,-999.0,75,-99.99,,,-99.99,,2013-03-28 09:32:00,
2013-03-28 05:42:00,28.0,21.0,30.39,NW,311,7.0,-999.0,75,-99.99,,,-99.99,,2013-03-28 09:42:00,
2013-03-28 05:52:00,28.0,20.0,30.39,WNW,300,9.0,-999.0,73,-99.99,,,-99.99,,2013-03-28 09:52:00,
2013-03-28 06:03:00,28.0,20.0,30.39,WNW,286,9.0,-999.0,73,-99.99,,,-99.99,,2013-03-28 10:03:00,
2013-03-28 06:12:00,28.0,20.0,30.39,WNW,286,9.0,-999.0,73,-99.99,,,-99.99,,2013-03-28 10:12:00,
2013-03-28 06:22:00,28.0,20.0,30.39,WNW,292,8.0,-999.0,73,-99.99,,,-99.99,,2013-03-28 10:22:00,
2013-03-28 06:33:00,28.0,20.0,30.40,WNW,303,7.0,-999.0,73,-99.99,,,-99.99,,2013-03-28 10:33:00,
2013-03-28 06:42:00,28.0,20.0,30.40,WNW,303,7.0,-999.0,73,-99.99,,,-99.99,,2013-03-28 10:42:00,
2013-03-28 06:53:00,28.0,20.0,30.40,NNW,337,9.0,-999.0,72,-99.99,,,-99.99,,2013-03-28 10:53:00,
2013-03-28 07:02:00,28.0,20.0,30.40,WSW,258,8.0,-999.0,71,-99.99,,,-99.99,,2013-03-28 11:02:00,
2013-03-28 07:12:00,28.0,20.0,30.40,WSW,258,8.0,-999.0,71,-99.99,,,-99.99,,2013-03-28 11:12:00,
2013-03-28 07:23:00,29.0,20.0,30.40,WNW,298,7.0,-999.0,70,-99.99,,,-99.99,,2013-03-28 11:23:00,
2013-03-28 07:32:00,28.0,20.0,30.40,NNW,342,8.0,-999.0,71,-99.99,,,-99.99,,2013-03-28 11:32:00,
2013-03-28 07:42:00,28.0,20.0,30.40,NNW,342,8.0,-999.0,71,-99.99,,,-99.99,,2013-03-28 11:42:00,
2013-03-28 07:52:00,28.0,20.0,30.40,WNW,284,8.0,-999.0,71,-99.99,,,-99.99,,2013-03-28 11:52:00,
2013-03-28 08:02:00,29.0,20.0,30.41,NW,321,8.0,-999.0,70,-99.99,,,-99.99,,2013-03-28 12:02:00,
2013-03-28 08:12:00,29.0,20.0,30.41,NW,321,8.0,-999.0,70,-99.99,,,-99.99,,2013-03-28 12:12:00,
2013-03-28 08:22:00,29.0,20.0,30.41,NW,321,9.0,-999.0,70,-99.99,,,-99.99,,2013-03-28 12:22:00,
2013-03-28 08:32:00,29.0,20.0,30.42,North,350,8.0,-999.0,70,-99.99,,,-99.99,,2013-03-28 12:32:00,
2013-03-28 08:42:00,29.0,20.0,30.42,North,350,8.0,-999.0,70,-99.99,,,-99.99,,2013-03-28 12:42:00,
2013-03-28 08:52:00,29.0,20.0,30.42,West,275,8.0,-999.0,69,-99.99,,,-99.99,,2013-03-28 12:52:00,
2013-03-28 09:02:00,29.0,20.0,30.42,NW,325,12.0,-999.0,68,-99.99,,,-99.99,,2013-03-28 13:02:00,
2013-03-28 09:12:00,29.0,20.0,30.42,NW,325,12.0,-999.0,68,-99.99,,,-99.99,,2013-03-28 13:12:00,
2013-03-28 09:22:00,29.0,20.0,30.42,NW,313,10.0,-999.0,68,-99.99,,,-99.99,,2013-03-28 13:22:00,
2013-03-28 09:32:00,29.0,19.0,30.42,WNW,296,9.0,-999.0,67,-99.99,,,-99.99,,2013-03-28 13:32:00,
2013-03-28 09:42:00,29.0,19.0,30.42,WNW,296,9.0,-999.0,67,-99.99,,,-99.99,,2013-03-28 13:42:00,
2013-03-28 09:52:00,29.0,19.0,30.42,WNW,296,9.0,-999.0,67,-99.99,,,-99.99,,2013-03-28 13:52:00,
2013-03-28 10:02:00,30.0,20.0,30.43,WNW,284,11.0,-999.0,67,-99.99,,,-99.99,,2013-03-28 14:02:00,
2013-03-28 10:12:00,30.0,20.0,30.43,WNW,284,11.0,-999.0,67,-99.99,,,-99.99,,2013-03-28 14:12:00,
2013-03-28 10:23:00,30.0,21.0,30.44,NW,324,12.0,-999.0,68,-99.99,,,-99.99,,2013-03-28 14:23:00,
2013-03-28 10:33:00,30.0,21.0,30.44,WNW,284,7.0,-999.0,68,-99.99,,,-99.99,,2013-03-28 14:33:00,
2013-03-28 10:42:00,30.0,21.0,30.44,WNW,284,7.0,-999.0,68,-99.99,,,-99.99,,2013-03-28 14:42:00,
2013-03-28 10:52:00,31.0,21.0,30.45,West,281,9.0,-999.0,67,-99.99,,,-99.99,,2013-03-28 14:52:00,
2013-03-28 11:02:00,31.0,21.0,30.45,NW,312,9.0,-999.0,67,-99.99,,,-99.99,,2013-03-28 15:02:00,
2013-03-28 11:12:00,31.0,21.0,30.45,NW,312,9.0,-999.0,67,-99.99,,,-99.99,,2013-03-28 15:12:00,
2013-03-28 11:22:00,32.0,22.0,30.45,NW,313,10.0,-999.0,65,-99.99,,,-99.99,,2013-03-28 15:22:00,
2013-03-28 11:33:00,32.0,22.0,30.45,NW,309,13.0,-999.0,66,-99.99,,,-99.99,,2013-03-28 15:33:00,
2013-03-28 11:43:00,32.0,22.0,30.45,NW,309,13.0,-999.0,66,-99.99,,,-99.99,,2013-03-28 15:43:00,
2013-03-28 11:53:00,32.0,22.0,30.45,WNW,302,13.0,-999.0,66,-99.99,,,-99.99,,2013-03-28 15:53:00,
2013-03-28 12:02:00,32.0,22.0,30.45,NNE,25,14.0,-999.0,66,-99.99,,,-99.99,,2013-03-28 16:02:00,
2013-03-28 12:12:00,32.0,22.0,30.45,NNE,25,14.0,-999.0,66,-99.99,,,-99.99,,2013-03-28 16:12:00,
2013-03-28 12:23:00,32.0,22.0,30.45,NW,313,12.0,-999.0,65,-99.99,,,-99.99,,2013-03-28 16:23:00,
2013-03-28 12:32:00,33.0,22.0,30.44,NNW,337,12.0,-999.0,64,-99.99,,,-99.99,,2013-03-28 16:32:00,
2013-03-28 12:42:00,33.0,22.0,30.44,NNW,337,12.0,-999.0,64,-99.99,,,-99.99,,2013-03-28 16:42:00,
2013-03-28 12:52:00,34.0,22.0,30.45,NNW,337,12.0,-999.0,62,-99.99,,,-99.99,,2013-03-28 16:52:00,
2013-03-28 13:02:00,33.0,22.0,30.44,NW,306,14.0,-999.0,63,-99.99,,,-99.99,,2013-03-28 17:02:00,
2013-03-28 13:12:00,33.0,22.0,30.44,NW,306,14.0,-999.0,63,-99.99,,,-99.99,,2013-03-28 17:12:00,
2013-03-28 13:22:00,33.0,22.0,30.44,NW,306,14.0,-999.0,63,-99.99,,,-99.99,,2013-03-28 17:22:00,
2013-03-28 13:32:00,35.0,23.0,30.43,WNW,288,14.0,-999.0,60,-99.99,,,-99.99,,2013-03-28 17:32:00,
2013-03-28 13:42:00,35.0,23.0,30.43,WNW,288,14.0,-999.0,60,-99.99,,,-99.99,,2013-03-28 17:42:00,
2013-03-28 13:52:00,36.0,23.0,30.43,NW,323,13.0,-999.0,58,-99.99,,,-99.99,,2013-03-28 17:52:00,
2013-03-28 14:02:00,37.0,24.0,30.43,NNW,329,12.0,-999.0,59,-99.99,,,-99.99,,2013-03-28 18:02:00,
2013-03-28 14:12:00,37.0,24.0,30.43,NNW,329,12.0,-999.0,59,-99.99,,,-99.99,,2013-03-28 18:12:00,
2013-03-28 14:22:00,37.0,23.0,30.43,NW,323,10.0,-999.0,57,-99.99,,,-99.99,,2013-03-28 18:22:00,
2013-03-28 14:32:00,38.0,24.0,30.43,WNW,291,12.0,-999.0,56,-99.99,,,-99.99,,2013-03-28 18:32:00,
2013-03-28 14:42:00,38.0,24.0,30.43,WNW,291,12.0,-999.0,56,-99.99,,,-99.99,,2013-03-28 18:42:00,
2013-03-28 14:52:00,39.0,25.0,30.42,NW,319,10.0,-999.0,57,-99.99,,,-99.99,,2013-03-28 18:52:00,
2013-03-28 15:02:00,39.0,24.0,30.42,WNW,283,12.0,-999.0,54,-99.99,,,-99.99,,2013-03-28 19:02:00,
2013-03-28 15:12:00,39.0,24.0,30.42,WNW,283,12.0,-999.0,54,-99.99,,,-99.99,,2013-03-28 19:12:00,
2013-03-28 15:22:00,39.0,24.0,30.42,NW,321,10.0,-999.0,55,-99.99,,,-99.99,,2013-03-28 19:22:00,
2013-03-28 15:33:00,40.0,25.0,30.41,West,279,13.0,-999.0,54,-99.99,,,-99.99,,2013-03-28 19:33:00,
2013-03-28 15:42:00,40.0,25.0,30.41,West,279,13.0,-999.0,54,-99.99,,,-99.99,,2013-03-28 19:42:00,
2013-03-28 15:52:00,40.0,23.0,30.40,WNW,294,13.0,-999.0,51,-99.99,,,-99.99,,2013-03-28 19:52:00,
2013-03-28 16:03:00,40.0,23.0,30.40,WNW,301,12.0,-999.0,51,-99.99,,,-99.99,,2013-03-28 20:03:00,
2013-03-28 16:12:00,40.0,23.0,30.40,WNW,301,12.0,-999.0,51,-99.99,,,-99.99,,2013-03-28 20:12:00,
2013-03-28 16:22:00,41.0,25.0,30.40,NW,308,8.0,-999.0,53,-99.99,,,-99.99,,2013-03-28 20:22:00,
2013-03-28 16:32:00,41.0,23.0,30.40,NW,313,8.0,-999.0,49,-99.99,,,-99.99,,2013-03-28 20:32:00,
2013-03-28 16:42:00,41.0,23.0,30.40,NW,313,8.0,-999.0,49,-99.99,,,-99.99,,2013-03-28 20:42:00,
2013-03-28 16:52:00,42.0,25.0,30.40,NNW,331,11.0,-999.0,50,-99.99,,,-99.99,,2013-03-28 20:52:00,
2013-03-28 17:02:00,41.0,23.0,30.40,North,355,10.0,-999.0,48,-99.99,,,-99.99,,2013-03-28 21:02:00,
2013-03-28 17:12:00,41.0,23.0,30.40,North,355,10.0,-999.0,48,-99.99,,,-99.99,,2013-03-28 21:12:00,
2013-03-28 17:22:00,41.0,24.0,30.40,WNW,303,7.0,-999.0,50,-99.99,,,-99.99,,2013-03-28 21:22:00,
2013-03-28 17:33:00,42.0,24.0,30.40,NW,306,6.0,-999.0,49,-99.99,,,-99.99,,2013-03-28 21:33:00,
2013-03-28 17:43:00,42.0,24.0,30.40,NW,306,6.0,-999.0,49,-99.99,,,-99.99,,2013-03-28 21:43:00,
2013-03-28 17:53:00,41.0,23.0,30.40,NNW,331,10.0,-999.0,49,-99.99,,,-99.99,,2013-03-28 21:53:00,
2013-03-28 18:03:00,41.0,23.0,30.40,WNW,290,10.0,-999.0,49,-99.99,,,-99.99,,2013-03-28 22:03:00,
2013-03-28 18:13:00,41.0,23.0,30.40,WNW,290,10.0,-999.0,49,-99.99,,,-99.99,,2013-03-28 22:13:00,
2013-03-28 18:22:00,41.0,23.0,30.40,NW,311,8.0,-999.0,48,-99.99,,,-99.99,,2013-03-28 22:22:00,
2013-03-28 18:32:00,41.0,23.0,30.41,NNW,336,10.0,-999.0,48,-99.99,,,-99.99,,2013-03-28 22:32:00,
2013-03-28 18:42:00,41.0,23.0,30.41,NNW,336,10.0,-999.0,48,-99.99,,,-99.99,,2013-03-28 22:42:00,
2013-03-28 18:52:00,41.0,23.0,30.42,North,5,8.0,-999.0,49,-99.99,,,-99.99,,2013-03-28 22:52:00,
2013-03-28 19:03:00,41.0,23.0,30.42,North,5,8.0,-999.0,49,-99.99,,,-99.99,,2013-03-28 23:03:00,
2013-03-28 19:12:00,41.0,23.0,30.42,North,5,8.0,-999.0,49,-99.99,,,-99.99,,2013-03-28 23:12:00,
2013-03-28 19:22:00,40.0,22.0,30.42,NNE,25,9.0,-999.0,49,-99.99,,,-99.99,,2013-03-28 23:22:00,
2013-03-28 19:32:00,39.0,22.0,30.42,NNW,333,7.0,-999.0,51,-99.99,,,-99.99,,2013-03-28 23:32:00,
2013-03-28 19:42:00,39.0,22.0,30.42,NNW,333,7.0,-999.0,51,-99.99,,,-99.99,,2013-03-28 23:42:00,
2013-03-28 19:53:00,38.0,22.0,30.42,NW,324,7.0,-999.0,51,-99.99,,,-99.99,,2013-03-28 23:53:00,
2013-03-28 20:02:00,37.0,21.0,30.42,NNW,329,7.0,-999.0,53,-99.99,,,-99.99,,2013-03-29 00:02:00,
2013-03-28 20:12:00,37.0,21.0,30.42,NNW,329,7.0,-999.0,53,-99.99,,,-99.99,,2013-03-29 00:12:00,
2013-03-28 20:22:00,37.0,22.0,30.43,North,11,5.0,-999.0,54,-99.99,,,-99.99,,2013-03-29 00:22:00,
2013-03-28 20:32:00,36.0,21.0,30.43,NW,317,3.0,-999.0,55,-99.99,,,-99.99,,2013-03-29 00:32:00,
2013-03-28 20:42:00,36.0,21.0,30.43,NW,317,3.0,-999.0,55,-99.99,,,-99.99,,2013-03-29 00:42:00,
2013-03-28 20:52:00,36.0,22.0,30.44,NW,306,2.0,-999.0,56,-99.99,,,-99.99,,2013-03-29 00:52:00,
2013-03-28 21:02:00,35.0,21.0,30.44,WNW,283,0.0,-999.0,57,-99.99,,,-99.99,,2013-03-29 01:02:00,
2013-03-28 21:12:00,35.0,21.0,30.44,WNW,283,0.0,-999.0,57,-99.99,,,-99.99,,2013-03-29 01:12:00,
2013-03-28 21:22:00,35.0,21.0,30.45,NW,317,1.0,-999.0,57,-99.99,,,-99.99,,2013-03-29 01:22:00,
2013-03-28 21:33:00,34.0,22.0,30.45,NNW,348,3.0,-999.0,61,-99.99,,,-99.99,,2013-03-29 01:33:00,
2013-03-28 21:42:00,34.0,22.0,30.45,NNW,348,3.0,-999.0,61,-99.99,,,-99.99,,2013-03-29 01:42:00,
2013-03-28 21:52:00,32.0,22.0,30.45,NNW,341,2.0,-999.0,66,-99.99,,,-99.99,,2013-03-29 01:52:00,
2013-03-28 22:02:00,31.0,22.0,30.45,NNW,339,2.0,-999.0,69,-99.99,,,-99.99,,2013-03-29 02:02:00,
2013-03-28 22:12:00,31.0,22.0,30.45,NNW,339,2.0,-999.0,69,-99.99,,,-99.99,,2013-03-29 02:12:00,
2013-03-28 22:22:00,30.0,22.0,30.45,North,349,2.0,-999.0,72,-99.99,,,-99.99,,2013-03-29 02:22:00,
2013-03-28 22:32:00,30.0,22.0,30.45,NNW,346,3.0,-999.0,72,-99.99,,,-99.99,,2013-03-29 02:32:00,
2013-03-28 22:42:00,30.0,22.0,30.45,NNW,346,3.0,-999.0,72,-99.99,,,-99.99,,2013-03-29 02:42:00,
2013-03-28 22:52:00,31.0,22.0,30.45,NNW,332,3.0,-999.0,70,-99.99,,,-99.99,,2013-03-29 02:52:00,
2013-03-28 23:02:00,32.0,22.0,30.46,NW,315,5.0,-999.0,66,-99.99,,,-99.99,,2013-03-29 03:02:00,
2013-03-28 23:12:00,32.0,22.0,30.46,NW,315,5.0,-999.0,66,-99.99,,,-99.99,,2013-03-29 03:12:00,
2013-03-28 23:22:00,33.0,22.0,30.45,NW,304,5.0,-999.0,64,-99.99,,,-99.99,,2013-03-29 03:22:00,
2013-03-28 23:32:00,33.0,22.0,30.46,WNW,291,5.0,-999.0,63,-99.99,,,-99.99,,2013-03-29 03:32:00,
2013-03-28 23:42:00,33.0,22.0,30.46,WNW,291,5.0,-999.0,63,-99.99,,,-99.99,,2013-03-29 03:42:00,
2013-03-28 23:53:00,34.0,22.0,30.46,WNW,293,6.0,-999.0,61,-99.99,,,-99.99,,2013-03-29 03:53:00,